Regional Weather Roundup
Issued by NWS

Home | Current Version | Previous Version | Graphics & Text | Print | Product List | Glossary On
Versions: 1 2 3 4 5 6 7 8 9 10 11 12 13 14 15 16 17 18 19 20 21 22 23 24 25 26 27 28 29 30 31 32 33 34 35 36 37 38 39 40 41 42 43 44 45 46 47 48 49 50
000
ASUS43 KOAX 151510
RWRNE

WEATHER ROUNDUP FOR NEBRASKA
NATIONAL WEATHER SERVICE OMAHA NE
1000 AM CDT TUE APR 15 2014

NOTES: SATELLITE DATA IS BEING USED TO AUGMENT CLOUD COVER ABOVE
       12000 FEET.
       "FAIR" INDICATES FEW OR NO CLOUDS BELOW 12,000 FEET WITH NO
       SIGNIFICANT WEATHER AND/OR OBSTRUCTIONS TO VISIBILITY.

  * THESE STATIONS DO NOT REPORT WEATHER SUCH AS RAIN...SNOW OR FOG.

NEZ001>004-019>022-054>056-151600-
NEBRASKA PANHANDLE

CITY           SKY/WX    TMP DP  RH WIND       PRES   REMARKS
SCOTTSBLUFF    SUNNY     43  25  49 W6        29.89F
ALLIANCE       SUNNY     47  22  37 W23       29.86F
CHADRON        MOSUNNY   45  28  51 SW13      29.82F
KIMBALL        SUNNY     44  22  41 W15       29.90F
SIDNEY         SUNNY     44  27  51 SW9       29.92F
$$

NEZ057>060-069>072-079>082-151600-
SOUTHWEST NEBRASKA

CITY           SKY/WX    TMP DP  RH WIND       PRES   REMARKS
NORTH PLATTE   SUNNY     42  23  46 SW9G17    29.97F
IMPERIAL       SUNNY     39  27  62 SW14      29.97F WCI  31
LEXINGTON      SUNNY     37  25  61 S10       30.03F WCI  30
MCCOOK         SUNNY     43  25  49 S14G21    30.02F
OGALLALA       SUNNY     38  26  61 W8        29.95F WCI  32
$$

NEZ005>010-023>029-035>040-094-151600-
NORTH CENTRAL NEBRASKA

CITY           SKY/WX    TMP DP  RH WIND       PRES   REMARKS
VALENTINE      SUNNY     40  21  46 S8        29.89F WCI  34
AINSWORTH      SUNNY     37  21  52 S16       29.92F WCI  28
BROKEN BOW     SUNNY     36  20  52 S18G25    30.00F WCI  26
O`NEILL        SUNNY     37  19  47 S17       30.03F WCI  28
ORD            SUNNY     36  21  54 S17G24    30.04F WCI  26
THEDFORD       SUNNY     42  21  43 S16G22    29.93F
$$

NEZ041-046>049-061>064-073>077-083>087-151600-
SOUTH CENTRAL NEBRASKA

CITY           SKY/WX    TMP DP  RH WIND       PRES   REMARKS
GRAND ISLAND   SUNNY     39  27  62 S14       30.10F WCI  31
AURORA         SUNNY     37  30  74 S12       30.11F WCI  30
HASTINGS       SUNNY     38  27  64 S9        30.09F WCI  31
HEBRON         SUNNY     39  31  73 S8        30.15F WCI  34
HOLDREGE       SUNNY     36  23  59 S12       30.06F WCI  27
KEARNEY *      SUNNY     37  23  56 S17       30.07  WCI  28
YORK           SUNNY     36  28  75 S12       30.13F WCI  27
$$

NEZ011>018-030>034-042>045-151600-
NORTHEAST NEBRASKA

CITY           SKY/WX    TMP DP  RH WIND       PRES   REMARKS
NORFOLK        SUNNY     31  21  66 SE12      30.12F WCI  22
ALBION         SUNNY     33  23  67 S13       30.10F WCI  24
BLAIR          SUNNY     32  21  64 CALM      30.17S
COLUMBUS *     SUNNY     34  25  69 SE6       30.14F WCI  29
FREMONT        SUNNY     33  22  63 E7        30.17F WCI  27
TEKAMAH        SUNNY     32  21  64 SE8       30.19F WCI  25
$$

NEZ050>053-065>068-078-088>093-151600-
SOUTHEAST NEBRASKA

CITY           SKY/WX    TMP DP  RH WIND       PRES   REMARKS
LINCOLN        SUNNY     38  23  55 S6        30.18F WCI  33
OMAHA EPPLEY   SUNNY     34  20  56 VRB5      30.20S WCI  30
BEATRICE       SUNNY     34  31  90 SE5       30.17F WCI  29
FALLS CITY     SUNNY     38  28  67 CALM      30.20F
NEBRASKA CITY  SUNNY     36  22  55 CALM      30.19S
PLATTSMOUTH    SUNNY     35  21  58 E5        30.20R WCI  31
$$

NEZ044-045-051>053-067-151600-
OMAHA AREA

CITY           SKY/WX    TMP DP  RH WIND       PRES   REMARKS
OMAHA EPPLEY   SUNNY     34  20  56 VRB5      30.20S WCI  30
BLAIR          SUNNY     32  21  64 CALM      30.17S
FREMONT        SUNNY     33  22  63 E7        30.17F WCI  27
MILLARD        SUNNY     35  18  51 CALM      30.19S
OFFUTT AFB     SUNNY     36  24  63 E5        30.20S WCI  32
PLATTSMOUTH    SUNNY     35  21  58 E5        30.20R WCI  31
WAHOO          FAIR      33  21  61 SE7       30.17F WCI  27
$$



USA.gov is the U.S. government's official web portal to all federal, state and local government web resources and services.